Location: Unspecified
(0.0000°N, 0.0000°E)
Time: 07:03:59
(UTC+00:00)

Oscar 19 - Visible Passes

Search period start: 28 May 2023 00:00
Search period end: 07 June 2023 00:00
Orbit: 773 x 788 km, 98.8° (Epoch: 27 May)

Date Brightness Start Highest point End Pass type
(mag) Time Alt. Az. Time Alt. Az. Time Alt. Az.
28 May 10.6 03:59:44 10° N 04:04:22 65° NW 04:04:22 65° NW visible
29 May 11.7 03:27:48 10° NNE 03:31:46 42° ENE 03:31:46 42° ENE visible
30 May 13.1 02:57:04 10° ENE 02:59:11 17° E 02:59:11 17° E visible
30 May 11.6 04:35:25 10° NNW 04:39:35 26° WNW 04:39:42 26° W visible
31 May 10.6 04:02:25 10° N 04:07:06 62° NW 04:07:06 62° NW visible
01 Jun 11.6 03:30:25 10° NNE 03:34:30 45° ENE 03:34:30 45° ENE visible
02 Jun 13.0 02:59:34 10° ENE 03:01:54 18° E 03:01:54 18° E visible
02 Jun 11.7 04:38:10 10° NNW 04:42:14 24° WNW 04:42:26 24° W visible
03 Jun 10.7 04:05:06 10° N 04:09:50 59° WNW 04:09:50 59° WNW visible
04 Jun 11.4 03:33:02 10° NNE 03:37:13 48° ENE 03:37:13 48° ENE visible
05 Jun 12.9 03:02:04 10° NE 03:04:37 20° E 03:04:37 20° E visible
05 Jun 11.8 04:40:57 10° NNW 04:44:53 23° WNW 04:45:09 23° W visible
06 Jun 10.7 04:07:46 10° N 04:12:32 56° WNW 04:12:32 56° WNW visible
